Find Zi Yuan 3-02

NORAD ID: 41556 Int'l Des: 2016-033 Owner: GCDX/ZZWYZ Country: CN operational
LEOCIRCULARRETROGRADESSO

現在のビュー

3D地球を読み込み中...

Zi Yuan 3-02について

説明を読み込み中...

次回通過

Passes for default location (London). Set your location on the main map for personalized predictions.

高度履歴

Loading altitude history...

軌道要素

1 41556U 16033A 26151.22075181 .00007788 00000-0 35047-3 0 9997
2 41556 97.3842 227.3190 0012375 355.3868 4.7251 15.21299052555400
Epoch: May 31, 2026 • Age: 7 hours

現在のステータス

高度 516.1 km
速度 7.60 km/s
衛星直下点 -15.09°S, 30.41°W
打ち上げ日 May 30, 2016
運用期間 10 years
タイプ other

技術仕様

分類 Payload
質量 2650.00 kg
乾燥質量 2600.00 kg
総質量 2650.00 kg
長さ 2.00 m
直径 2.00 m
スパン 10.00 m
形状 Box + 2 Pan
製造者 CAST
バスタイプ ZY
フェーズステータス In Orbit
所有者/国 GCDX/ZZWYZ/CN

Most Searched